Location: Bodest
(46.3000°N, 22.5667°E)
Time: 12:36:22
(UTC+00:00)

Cosmos 1844 Rocket - Pass Details

Date: 29 May 2022
Orbit: 826 x 843 km, 71.0° (Epoch: 28 June)

Event Time Altitude Azimuth Distance (km) Brightness Sun altitude
Rises 19:43:52 0° 337° (NNW) 3,383 7.5 -12.6°
Reaches altitude 10° 19:46:28 10° 345° (NNW) 2,444 6.3 -12.9°
Maximum altitude 19:51:44 41° 55° (NE) 1,191 3.5 -13.4°
Enters shadow 19:55:40 17° 118° (ESE) 1,988 4.1 -13.8°
